STATLINK-35318

导读 | 豆包AI

STARLINK-35318是美国SpaceX公司星链(Starlink)卫星互联网星座的一员,于2025年10月25日从美国佛罗里达州发射升空,属于星链大规模组网中的一颗卫星。该卫星运行在近地轨道,主要使命是为全球偏远地区、地面网络覆盖不足区域提供低延迟、高速宽带互联网接入服务,助力星链实现全球卫星互联网组网覆盖,目前处于正常在轨运行状态。

基本信息
目录编号:
66146
目录名称:
STARLINK-35318
国际标识:
2025-240A
轨道中心:
EARTH
卫星名称:
STARLINK-35318
卫星全名:
STATLINK-35318
卫星状态:
在轨 (已飞行140 天)
发射日期:
2025-10-25 UTC
国别 :
美国 (US)
星等 :
--
轨道信息
数据来源 国际轨道数据
星历时间: 2026-03-13T16:05:42+0800
23小时前
查看轨道信息
半长轴: 6853.355km
偏心率: 0.000106
轨道倾角: 53.159°
近地点辐角 91.148°
升交点赤经 46.107°
平近点角 268.964°
近地点: 474.491km
远地点: 475.945km
周期: 94.105分钟
每日圈数: 15.301992
详细信息
使用方式:
暂无
2D轨道图
3D轨道图
轨道高度分析图
轨道倾角分析图
轨道综合分析图
查看轨道综合分析图